Location: Home
(42.5358°N, 72.7383°W)
Time: 01:23:29
(UTC-05:00)

COSMOS 2251 DEB - Visible Passes

Search period start: 01 December 2022 00:00
Search period end: 11 December 2022 00:00
Orbit: 770 x 1231 km, 74.1° (Epoch: 30 November)

Date Brightness Start Highest point End Pass type
(mag) Time Alt. Az. Time Alt. Az. Time Alt. Az.
03 Dec ? 06:12:24 10° NNE 06:15:56 15° NE 06:19:39 10° E visible
05 Dec ? 05:32:59 10° NNE 05:34:49 11° NE 05:36:43 10° ENE visible
06 Dec ? 06:03:57 10° N 06:08:50 22° NE 06:14:04 10° ESE visible
07 Dec ? 06:36:22 10° N 06:42:28 42° ENE 06:49:11 10° SE visible
08 Dec ? 05:23:46 10° NNE 05:27:50 17° NE 05:32:06 10° E visible
09 Dec ? 05:55:52 10° N 06:01:38 32° ENE 06:07:55 10° ESE visible
10 Dec ? 04:43:59 10° NNE 04:46:44 13° NE 04:49:34 10° ENE visible
10 Dec ? 06:28:35 10° NNW 06:35:07 62° ENE 06:42:20 10° SSE visible
